Station Historical Data
Daily Summary for November 28, 2017 Units:  English    Metric   Both
Next Day »
Daily Weekly Monthly Yearly Custom
  High: Low: Average:
Temperature: 48.8 °F 37.0 °F 42.2 °F
Dew Point: 43.6 °F 34.7 °F 38.9 °F
Humidity: 93% 76% 88%
Wind Speed: 12.0mph 0.0mph 2.7mph
Wind Gust: 15.0mph - -
Wind- - SE
Pressure: 30.24 in 30.17 in -
Precipitation: 0.00 in    
Historical Graphs
 
 
Tabular Data for November 28, 2017
Time Temperature Dew Point Pressure Wind Wind Speed Wind Gust Humidity Rainfall Rate (Hourly) solar Conditions
00:02 39.5 °F 37.7 °F 30.18 in ESE 1.0 mph 9.0 mph 93% 0.00 in 0.00 W/m2
00:07 39.5 °F 37.7 °F 30.18 in Calm   12.0 mph 93% 0.00 in 0.00 W/m2
00:12 39.5 °F 37.7 °F 30.18 in Calm   13.0 mph 93% 0.00 in 0.00 W/m2
00:17 39.5 °F 37.7 °F 30.18 in ESE 4.0 mph 13.0 mph 93% 0.00 in 0.00 W/m2
00:22 39.5 °F 37.7 °F 30.18 in East 7.0 mph 15.0 mph 93% 0.00 in 0.00 W/m2
00:27 39.5 °F 37.7 °F 30.18 in Calm   11.0 mph 93% 0.00 in 0.00 W/m2
00:33 39.5 °F 37.7 °F 30.18 in ESE 8.0 mph 12.0 mph 93% 0.00 in 0.00 W/m2
00:37 39.5 °F 37.7 °F 30.18 in Calm   9.0 mph 93% 0.00 in 0.00 W/m2
00:43 39.5 °F 37.4 °F 30.18 in ESE 7.0 mph 12.0 mph 92% 0.00 in 0.00 W/m2
00:48 39.4 °F 37.3 °F 30.18 in ESE 1.0 mph 12.0 mph 92% 0.00 in 0.00 W/m2
00:53 39.4 °F 37.3 °F 30.19 in SE 4.0 mph 11.0 mph 92% 0.00 in 0.00 W/m2
00:58 39.3 °F 37.2 °F 30.19 in SE 11.0 mph 12.0 mph 92% 0.00 in 0.00 W/m2
01:03 39.2 °F 37.3 °F 30.19 in SE 2.0 mph 14.0 mph 93% 0.00 in 0.00 W/m2
01:08 39.1 °F 37.0 °F 30.19 in SE 8.0 mph 13.0 mph 92% 0.00 in 0.00 W/m2
01:13 39.0 °F 37.2 °F 30.19 in SE 5.0 mph 12.0 mph 93% 0.00 in 0.00 W/m2
01:18 38.9 °F 36.8 °F 30.19 in SE 6.0 mph 12.0 mph 92% 0.00 in 0.00 W/m2
01:23 38.9 °F 36.8 °F 30.19 in SE 4.0 mph 9.0 mph 92% 0.00 in 0.00 W/m2
01:28 38.8 °F 37.0 °F 30.19 in SE 11.0 mph 11.0 mph 93% 0.00 in 0.00 W/m2
01:33 38.7 °F 36.8 °F 30.19 in SE 7.0 mph 9.0 mph 93% 0.00 in 0.00 W/m2
01:38 38.7 °F 36.8 °F 30.19 in SE 6.0 mph 11.0 mph 93% 0.00 in 0.00 W/m2
01:41 38.7 °F 36.8 °F 30.19 in SE 9.0 mph 9.0 mph 93% 0.00 in 0.00 W/m2
01:46 38.6 °F 36.8 °F 30.18 in SE 7.0 mph 11.0 mph 93% 0.00 in 0.00 W/m2
01:51 38.6 °F 36.8 °F 30.19 in SE 9.0 mph 12.0 mph 93% 0.00 in 0.00 W/m2
01:56 38.6 °F 36.8 °F 30.19 in SE 6.0 mph 8.0 mph 93% 0.00 in 0.00 W/m2
02:01 38.6 °F 36.8 °F 30.19 in SE 12.0 mph 12.0 mph 93% 0.00 in 0.00 W/m2
02:06 38.6 °F 36.8 °F 30.19 in ESE 7.0 mph 11.0 mph 93% 0.00 in 0.00 W/m2
02:11 38.5 °F 36.7 °F 30.19 in SE 5.0 mph 9.0 mph 93% 0.00 in 0.00 W/m2
02:16 38.5 °F 36.7 °F 30.18 in ESE 7.0 mph 13.0 mph 93% 0.00 in 0.00 W/m2
02:18 38.5 °F 36.7 °F 30.19 in ESE 6.0 mph 13.0 mph 93% 0.00 in 0.00 W/m2
02:23 38.4 °F 36.3 °F 30.19 in SE 7.0 mph 13.0 mph 92% 0.00 in 0.00 W/m2
02:28 38.4 °F 36.6 °F 30.19 in SE 7.0 mph 11.0 mph 93% 0.00 in 0.00 W/m2
02:33 38.4 °F 36.3 °F 30.19 in SE 7.0 mph 11.0 mph 92% 0.00 in 0.00 W/m2
02:38 38.4 °F 36.3 °F 30.19 in SE 6.0 mph 9.0 mph 92% 0.00 in 0.00 W/m2
02:43 38.4 °F 36.3 °F 30.19 in SE 5.0 mph 9.0 mph 92% 0.00 in 0.00 W/m2
02:48 38.3 °F 36.2 °F 30.19 in SE 2.0 mph 9.0 mph 92% 0.00 in 0.00 W/m2
02:53 38.3 °F 36.2 °F 30.19 in SE 4.0 mph 11.0 mph 92% 0.00 in 0.00 W/m2
02:58 38.2 °F 36.1 °F 30.19 in SE 11.0 mph 11.0 mph 92% 0.00 in 0.00 W/m2
03:03 38.1 °F 36.0 °F 30.19 in SE 5.0 mph 12.0 mph 92% 0.00 in 0.00 W/m2
03:08 38.0 °F 35.9 °F 30.19 in SE 4.0 mph 11.0 mph 92% 0.00 in 0.00 W/m2
03:13 38.0 °F 35.9 °F 30.19 in SE 11.0 mph 11.0 mph 92% 0.00 in 0.00 W/m2
03:18 38.0 °F 35.9 °F 30.19 in SE 8.0 mph 12.0 mph 92% 0.00 in 0.00 W/m2
03:23 37.9 °F 35.8 °F 30.19 in SE 4.0 mph 12.0 mph 92% 0.00 in 0.00 W/m2
03:28 37.9 °F 35.8 °F 30.19 in SE 7.0 mph 11.0 mph 92% 0.00 in 0.00 W/m2
03:33 37.9 °F 35.8 °F 30.19 in SE 7.0 mph 12.0 mph 92% 0.00 in 0.00 W/m2
03:38 37.9 °F 35.8 °F 30.19 in SE 8.0 mph 13.0 mph 92% 0.00 in 0.00 W/m2
03:43 37.9 °F 35.8 °F 30.19 in SE 7.0 mph 11.0 mph 92% 0.00 in 0.00 W/m2
03:48 37.9 °F 35.8 °F 30.18 in SE 6.0 mph 11.0 mph 92% 0.00 in 0.00 W/m2
03:53 37.9 °F 35.8 °F 30.19 in SE 7.0 mph 11.0 mph 92% 0.00 in 0.00 W/m2
03:58 38.0 °F 35.9 °F 30.19 in SE 7.0 mph 11.0 mph 92% 0.00 in 0.00 W/m2
04:03 38.0 °F 35.9 °F 30.19 in SE 6.0 mph 11.0 mph 92% 0.00 in 0.00 W/m2
04:08 38.0 °F 35.9 °F 30.19 in SE 8.0 mph 12.0 mph 92% 0.00 in 0.00 W/m2
04:13 38.0 °F 35.9 °F 30.19 in SE 9.0 mph 13.0 mph 92% 0.00 in 0.00 W/m2
04:19 38.1 °F 36.0 °F 30.19 in SE 11.0 mph 11.0 mph 92% 0.00 in 0.00 W/m2
04:24 38.0 °F 35.9 °F 30.19 in SE 7.0 mph 13.0 mph 92% 0.00 in 0.00 W/m2
04:29 38.0 °F 35.9 °F 30.19 in SE 7.0 mph 11.0 mph 92% 0.00 in 0.00 W/m2
04:34 38.0 °F 35.9 °F 30.19 in SE 6.0 mph 10.0 mph 92% 0.00 in 0.00 W/m2
04:39 38.0 °F 35.6 °F 30.19 in SE 8.0 mph 13.0 mph 91% 0.00 in 0.00 W/m2
04:49 38.0 °F 35.9 °F 30.19 in SE 5.0 mph 12.0 mph 92% 0.00 in 0.00 W/m2
04:52 38.0 °F 35.9 °F 30.19 in SE 8.0 mph 12.0 mph 92% 0.00 in 0.00 W/m2
05:02 37.9 °F 35.5 °F 30.18 in SE 9.0 mph 12.0 mph 91% 0.00 in 0.00 W/m2
05:07 37.9 °F 35.5 °F 30.18 in SE 6.0 mph 12.0 mph 91% 0.00 in 0.00 W/m2
05:12 37.8 °F 35.4 °F 30.18 in SE 7.0 mph 12.0 mph 91% 0.00 in 0.00 W/m2
05:17 37.8 °F 35.4 °F 30.18 in SE 11.0 mph 11.0 mph 91% 0.00 in 0.00 W/m2
05:27 37.7 °F 35.3 °F 30.18 in SE 2.0 mph 11.0 mph 91% 0.00 in 0.00 W/m2
05:32 37.7 °F 35.3 °F 30.18 in SE 2.0 mph 9.0 mph 91% 0.00 in 0.00 W/m2
05:37 37.6 °F 35.2 °F 30.18 in SE 6.0 mph 12.0 mph 91% 0.00 in 0.00 W/m2
05:42 37.6 °F 35.2 °F 30.18 in SE 8.0 mph 12.0 mph 91% 0.00 in 0.00 W/m2
05:47 37.5 °F 35.1 °F 30.18 in SE 5.0 mph 11.0 mph 91% 0.00 in 0.00 W/m2
05:52 37.5 °F 35.1 °F 30.18 in SE 4.0 mph 11.0 mph 91% 0.00 in 0.00 W/m2
05:57 37.4 °F 35.0 °F 30.18 in SE 6.0 mph 12.0 mph 91% 0.00 in 0.00 W/m2
06:02 37.4 °F 35.0 °F 30.18 in SE 2.0 mph 9.0 mph 91% 0.00 in 0.00 W/m2
06:07 37.3 °F 34.9 °F 30.17 in ESE 2.0 mph 12.0 mph 91% 0.00 in 0.00 W/m2
06:12 37.3 °F 34.9 °F 30.17 in ESE 4.0 mph 11.0 mph 91% 0.00 in 0.00 W/m2
06:17 37.3 °F 34.9 °F 30.18 in ESE 5.0 mph 12.0 mph 91% 0.00 in 0.00 W/m2
06:22 37.2 °F 34.8 °F 30.18 in ESE 4.0 mph 8.0 mph 91% 0.00 in 0.00 W/m2
06:27 37.2 °F 34.8 °F 30.18 in Calm   11.0 mph 91% 0.00 in 0.00 W/m2
06:32 37.2 °F 34.8 °F 30.18 in ESE 7.0 mph 11.0 mph 91% 0.00 in 0.00 W/m2
06:37 37.2 °F 35.1 °F 30.18 in ESE 2.0 mph 8.0 mph 92% 0.00 in 0.00 W/m2
06:42 37.1 °F 35.0 °F 30.18 in ESE 8.0 mph 11.0 mph 92% 0.00 in 0.00 W/m2
06:52 37.1 °F 35.0 °F 30.17 in ESE 5.0 mph 11.0 mph 92% 0.00 in 0.00 W/m2
07:02 37.1 °F 35.0 °F 30.17 in ESE 7.0 mph 9.0 mph 92% 0.00 in 5.00 W/m2
07:08 37.0 °F 34.9 °F 30.17 in ESE 9.0 mph 13.0 mph 92% 0.00 in 7.00 W/m2
07:13 37.0 °F 34.9 °F 30.18 in ESE 4.0 mph 12.0 mph 92% 0.00 in 9.00 W/m2
07:18 37.0 °F 34.9 °F 30.18 in ESE 6.0 mph 13.0 mph 92% 0.00 in 11.00 W/m2
07:23 37.0 °F 34.9 °F 30.18 in ESE 6.0 mph 12.0 mph 92% 0.00 in 14.00 W/m2
07:33 37.0 °F 34.9 °F 30.19 in ESE 6.0 mph 12.0 mph 92% 0.00 in 19.00 W/m2
07:38 37.1 °F 34.7 °F 30.19 in Calm   1.0 mph 91% 0.00 in 25.00 W/m2
07:43 37.1 °F 34.7 °F 30.19 in ESE 5.0 mph 11.0 mph 91% 0.00 in 44.00 W/m2
07:48 37.1 °F 34.7 °F 30.20 in ESE 2.0 mph 11.0 mph 91% 0.00 in 70.00 W/m2
08:03 37.3 °F 34.9 °F 30.20 in Calm     91% 0.00 in 118.00 W/m2
08:13 37.5 °F 35.4 °F 30.21 in Calm     92% 0.00 in 155.00 W/m2
08:18 37.6 °F 35.5 °F 30.21 in Calm     92% 0.00 in 167.00 W/m2
08:23 37.8 °F 35.7 °F 30.22 in Calm     92% 0.00 in 186.00 W/m2
08:28 37.9 °F 35.8 °F 30.22 in Calm     92% 0.00 in 204.00 W/m2
08:33 38.0 °F 35.9 °F 30.22 in Calm     92% 0.00 in 213.00 W/m2
08:38 38.2 °F 36.1 °F 30.22 in Calm     92% 0.00 in 239.00 W/m2
08:43 38.5 °F 36.4 °F 30.22 in Calm     92% 0.00 in 257.00 W/m2
08:48 38.7 °F 36.6 °F 30.22 in Calm     92% 0.00 in 260.00 W/m2
08:53 38.9 °F 37.0 °F 30.22 in SE 8.0 mph 11.0 mph 93% 0.00 in 292.00 W/m2
08:58 39.2 °F 37.1 °F 30.22 in SE 10.0 mph 13.0 mph 92% 0.00 in 306.00 W/m2
09:03 39.5 °F 37.4 °F 30.22 in SE 8.0 mph 11.0 mph 92% 0.00 in 316.00 W/m2
09:19 40.5 °F 37.8 °F 30.23 in Calm   1.0 mph 90% 0.00 in 353.00 W/m2
09:24 40.8 °F 37.8 °F 30.24 in SE 1.0 mph 1.0 mph 89% 0.00 in 362.00 W/m2
09:29 41.1 °F 37.8 °F 30.24 in SSE 1.0 mph 1.0 mph 88% 0.00 in 374.00 W/m2
09:39 41.9 °F 38.9 °F 30.24 in Calm   1.0 mph 89% 0.00 in 383.00 W/m2
09:44 42.2 °F 38.9 °F 30.23 in SSE 5.0 mph 10.0 mph 88% 0.00 in 396.00 W/m2
09:49 42.5 °F 38.6 °F 30.24 in SSE 11.0 mph 12.0 mph 86% 0.00 in 403.00 W/m2
09:59 43.1 °F 39.2 °F 30.24 in SSE 6.0 mph 12.0 mph 86% 0.00 in 406.00 W/m2
10:04 43.3 °F 39.1 °F 30.24 in SSE 8.0 mph 9.0 mph 85% 0.00 in 439.00 W/m2
10:09 43.6 °F 39.4 °F 30.23 in SSE 6.0 mph 11.0 mph 85% 0.00 in 443.00 W/m2
10:14 43.8 °F 40.2 °F 30.23 in Calm   11.0 mph 87% 0.00 in 452.00 W/m2
10:19 44.0 °F 40.1 °F 30.23 in SE 8.0 mph 13.0 mph 86% 0.00 in 459.00 W/m2
10:24 44.2 °F 40.0 °F 30.23 in Calm   13.0 mph 85% 0.00 in 462.00 W/m2
10:29 44.5 °F 40.3 °F 30.22 in Calm   12.0 mph 85% 0.00 in 471.00 W/m2
10:34 44.8 °F 40.6 °F 30.23 in SSE 9.0 mph 11.0 mph 85% 0.00 in 480.00 W/m2
10:44 45.2 °F 40.3 °F 30.22 in South 8.0 mph 12.0 mph 83% 0.00 in 489.00 W/m2
10:45 45.3 °F 40.5 °F 30.22 in SSE 8.0 mph 12.0 mph 83% 0.00 in 490.00 W/m2
10:50 45.5 °F 40.7 °F 30.22 in Calm   10.0 mph 83% 0.00 in 496.00 W/m2
10:55 45.7 °F 41.5 °F 30.23 in South 6.0 mph 9.0 mph 85% 0.00 in 501.00 W/m2
11:00 45.9 °F 41.0 °F 30.23 in Calm   10.0 mph 83% 0.00 in 504.00 W/m2
11:05 46.1 °F 41.5 °F 30.23 in Calm   2.0 mph 84% 0.00 in 508.00 W/m2
11:10 46.3 °F 41.7 °F 30.23 in SW 2.0 mph 8.0 mph 84% 0.00 in 510.00 W/m2
11:15 46.6 °F 41.4 °F 30.23 in Calm   10.0 mph 82% 0.00 in 515.00 W/m2
11:20 46.7 °F 41.2 °F 30.23 in Calm   8.0 mph 81% 0.00 in 519.00 W/m2
11:35 47.0 °F 41.8 °F 30.22 in Calm   1.0 mph 82% 0.00 in 522.00 W/m2
11:45 47.1 °F 42.2 °F 30.22 in Calm   1.0 mph 83% 0.00 in 519.00 W/m2
11:55 47.3 °F 42.1 °F 30.22 in Calm   9.0 mph 82% 0.00 in 522.00 W/m2
12:00 47.4 °F 42.2 °F 30.22 in Calm     82% 0.00 in 522.00 W/m2
12:05 47.5 °F 42.3 °F 30.22 in Calm   1.0 mph 82% 0.00 in 519.00 W/m2
12:10 47.7 °F 41.8 °F 30.21 in Calm   1.0 mph 80% 0.00 in 520.00 W/m2
12:20 47.9 °F 42.4 °F 30.21 in Calm   1.0 mph 81% 0.00 in 522.00 W/m2
12:25 47.9 °F 41.7 °F 30.21 in Calm   2.0 mph 79% 0.00 in 519.00 W/m2
12:30 48.1 °F 42.2 °F 30.21 in Calm   1.0 mph 80% 0.00 in 510.00 W/m2
12:35 48.3 °F 42.1 °F 30.21 in Calm   1.0 mph 79% 0.00 in 497.00 W/m2
12:40 48.4 °F 42.5 °F 30.21 in Calm     80% 0.00 in 490.00 W/m2
12:45 48.4 °F 41.2 °F 30.21 in Calm     76% 0.00 in 496.00 W/m2
12:55 48.5 °F 42.3 °F 30.20 in Calm     79% 0.00 in 485.00 W/m2
13:00 48.5 °F 42.3 °F 30.20 in Calm     79% 0.00 in 482.00 W/m2
13:05 48.6 °F 42.4 °F 30.20 in Calm   2.0 mph 79% 0.00 in 482.00 W/m2
13:07 48.7 °F 42.5 °F 30.20 in Calm   1.0 mph 79% 0.00 in 466.00 W/m2
13:12 48.7 °F 42.5 °F 30.20 in South 1.0 mph 1.0 mph 79% 0.00 in 468.00 W/m2
13:17 48.8 °F 42.6 °F 30.20 in Calm     79% 0.00 in 431.00 W/m2
13:32 48.8 °F 42.6 °F 30.20 in Calm     79% 0.00 in 445.00 W/m2
13:34 48.8 °F 42.3 °F 30.20 in Calm     78% 0.00 in 438.00 W/m2
13:39 48.8 °F 41.9 °F 30.20 in Calm     77% 0.00 in 431.00 W/m2
13:44 48.8 °F 42.3 °F 30.20 in Calm     78% 0.00 in 413.00 W/m2
13:54 48.8 °F 42.9 °F 30.19 in Calm     80% 0.00 in 404.00 W/m2
14:04 48.8 °F 42.9 °F 30.19 in Calm     80% 0.00 in 392.00 W/m2
14:10 48.8 °F 43.6 °F 30.19 in Calm     82% 0.00 in 318.00 W/m2
14:15 48.8 °F 42.9 °F 30.19 in Calm     80% 0.00 in 229.00 W/m2
14:25 48.8 °F 43.2 °F 30.18 in Calm     81% 0.00 in 169.00 W/m2
14:30 48.8 °F 43.2 °F 30.19 in Calm     81% 0.00 in 387.00 W/m2
14:35 48.8 °F 43.2 °F 30.18 in Calm     81% 0.00 in 380.00 W/m2
14:45 48.8 °F 42.9 °F 30.19 in Calm     80% 0.00 in 306.00 W/m2
14:50 48.8 °F 43.2 °F 30.19 in Calm     81% 0.00 in 285.00 W/m2
14:55 48.8 °F 42.9 °F 30.19 in Calm     80% 0.00 in 258.00 W/m2
15:00 48.7 °F 42.8 °F 30.19 in Calm     80% 0.00 in 262.00 W/m2
15:05 48.7 °F 42.5 °F 30.19 in Calm     79% 0.00 in 186.00 W/m2
15:20 48.4 °F 42.5 °F 30.19 in Calm     80% 0.00 in 165.00 W/m2
15:25 48.3 °F 42.1 °F 30.19 in Calm     79% 0.00 in 158.00 W/m2
15:30 48.2 °F 42.3 °F 30.19 in Calm     80% 0.00 in 160.00 W/m2
15:40 48.1 °F 43.5 °F 30.19 in Calm     84% 0.00 in 118.00 W/m2
15:45 48.0 °F 43.1 °F 30.19 in Calm     83% 0.00 in 86.00 W/m2
15:50 47.8 °F 43.2 °F 30.18 in Calm     84% 0.00 in 69.00 W/m2
15:55 47.7 °F 43.1 °F 30.18 in Calm     84% 0.00 in 40.00 W/m2
16:11 47.2 °F 42.9 °F 30.18 in Calm     85% 0.00 in 47.00 W/m2
16:16 46.9 °F 42.6 °F 30.19 in Calm     85% 0.00 in 35.00 W/m2
16:26 46.5 °F 42.5 °F 30.19 in Calm     86% 0.00 in 25.00 W/m2
16:31 46.3 °F 42.7 °F 30.19 in Calm     87% 0.00 in 19.00 W/m2
16:36 46.1 °F 42.5 °F 30.19 in Calm     87% 0.00 in 14.00 W/m2
16:41 45.9 °F 42.5 °F 30.19 in Calm     88% 0.00 in 9.00 W/m2
16:46 45.8 °F 42.8 °F 30.19 in Calm     89% 0.00 in 5.00 W/m2
16:51 45.6 °F 42.3 °F 30.18 in Calm     88% 0.00 in 5.00 W/m2
17:06 45.1 °F 42.1 °F 30.19 in Calm     89% 0.00 in 0.00 W/m2
17:11 44.9 °F 41.9 °F 30.19 in Calm     89% 0.00 in 0.00 W/m2
17:16 44.7 °F 42.0 °F 30.19 in Calm     90% 0.00 in 0.00 W/m2
17:21 44.7 °F 41.7 °F 30.19 in Calm     89% 0.00 in 0.00 W/m2
17:26 44.6 °F 41.8 °F 30.19 in Calm     90% 0.00 in 0.00 W/m2
17:31 44.4 °F 41.7 °F 30.19 in Calm     90% 0.00 in 0.00 W/m2
17:36 44.3 °F 41.6 °F 30.19 in Calm     90% 0.00 in 0.00 W/m2
17:46 44.1 °F 41.4 °F 30.18 in Calm     90% 0.00 in 0.00 W/m2
17:51 44.1 °F 41.4 °F 30.18 in Calm     90% 0.00 in 0.00 W/m2
17:56 44.0 °F 41.5 °F 30.19 in Calm     91% 0.00 in 0.00 W/m2
18:01 44.0 °F 41.3 °F 30.19 in Calm     90% 0.00 in 0.00 W/m2
18:11 43.9 °F 41.5 °F 30.18 in North 1.0 mph 2.0 mph 91% 0.00 in 0.00 W/m2
18:16 43.8 °F 41.3 °F 30.18 in Calm   1.0 mph 91% 0.00 in 0.00 W/m2
18:21 43.8 °F 41.3 °F 30.18 in Calm     91% 0.00 in 0.00 W/m2
18:26 43.7 °F 41.2 °F 30.18 in Calm     91% 0.00 in 0.00 W/m2
18:31 43.7 °F 41.2 °F 30.18 in NE 1.0 mph 2.0 mph 91% 0.00 in 0.00 W/m2
18:46 43.5 °F 41.0 °F 30.18 in Calm   7.0 mph 91% 0.00 in 0.00 W/m2
18:51 43.5 °F 41.0 °F 30.18 in East 2.0 mph 5.0 mph 91% 0.00 in 0.00 W/m2
19:02 43.6 °F 41.4 °F 30.19 in Calm   8.0 mph 92% 0.00 in 0.00 W/m2
19:07 43.8 °F 41.6 °F 30.19 in East 2.0 mph 5.0 mph 92% 0.00 in 0.00 W/m2
19:13 43.9 °F 41.5 °F 30.19 in Calm   5.0 mph 91% 0.00 in 0.00 W/m2
19:19 44.0 °F 41.5 °F 30.19 in East 2.0 mph 5.0 mph 91% 0.00 in 0.00 W/m2
19:20 44.0 °F 41.5 °F 30.19 in Calm   5.0 mph 91% 0.00 in 0.00 W/m2
19:21 44.0 °F 41.5 °F 30.19 in Calm     91% 0.00 in 0.00 W/m2
19:26 43.9 °F 41.5 °F 30.19 in Calm   4.0 mph 91% 0.00 in 0.00 W/m2
19:27 43.9 °F 41.5 °F 30.19 in East 5.0 mph 6.0 mph 91% 0.00 in 0.00 W/m2
19:28 43.9 °F 41.5 °F 30.19 in Calm   6.0 mph 91% 0.00 in 0.00 W/m2
19:33 43.9 °F 41.5 °F 30.19 in Calm   5.0 mph 91% 0.00 in 0.00 W/m2
19:38 43.9 °F 41.5 °F 30.19 in Calm   5.0 mph 91% 0.00 in 0.00 W/m2
19:43 43.9 °F 41.5 °F 30.19 in East 1.0 mph 6.0 mph 91% 0.00 in 0.00 W/m2
19:48 43.9 °F 41.5 °F 30.19 in East 4.0 mph 7.0 mph 91% 0.00 in 0.00 W/m2
19:58 43.9 °F 41.2 °F 30.19 in ESE 1.0 mph 5.0 mph 90% 0.00 in 0.00 W/m2
20:03 44.0 °F 41.3 °F 30.19 in Calm   5.0 mph 90% 0.00 in 0.00 W/m2
20:08 44.0 °F 41.3 °F 30.19 in Calm   8.0 mph 90% 0.00 in 0.00 W/m2
20:18 44.0 °F 41.0 °F 30.18 in East 4.0 mph 8.0 mph 89% 0.00 in 0.00 W/m2
20:23 44.0 °F 40.7 °F 30.18 in Calm   8.0 mph 88% 0.00 in 0.00 W/m2
20:28 44.1 °F 40.8 °F 30.18 in Calm   7.0 mph 88% 0.00 in 0.00 W/m2
20:33 44.1 °F 40.5 °F 30.19 in East 4.0 mph 5.0 mph 87% 0.00 in 0.00 W/m2
20:38 44.1 °F 40.8 °F 30.18 in Calm   2.0 mph 88% 0.00 in 0.00 W/m2
20:43 44.1 °F 40.8 °F 30.18 in Calm     88% 0.00 in 0.00 W/m2
20:48 43.9 °F 40.6 °F 30.19 in Calm     88% 0.00 in 0.00 W/m2
20:53 43.5 °F 40.2 °F 30.20 in Calm   1.0 mph 88% 0.00 in 0.00 W/m2
21:03 43.0 °F 40.0 °F 30.20 in Calm     89% 0.00 in 0.00 W/m2
21:08 42.9 °F 39.9 °F 30.20 in Calm     89% 0.00 in 0.00 W/m2
21:18 42.4 °F 39.4 °F 30.20 in Calm     89% 0.00 in 0.00 W/m2
21:23 42.2 °F 39.5 °F 30.21 in Calm   5.0 mph 90% 0.00 in 0.00 W/m2
21:28 42.0 °F 39.3 °F 30.21 in Calm   5.0 mph 90% 0.00 in 0.00 W/m2
21:33 42.0 °F 39.0 °F 30.20 in Calm   1.0 mph 89% 0.00 in 0.00 W/m2
21:38 41.9 °F 39.2 °F 30.20 in Calm   7.0 mph 90% 0.00 in 0.00 W/m2
21:43 41.9 °F 38.9 °F 30.20 in NNE 1.0 mph 5.0 mph 89% 0.00 in 0.00 W/m2
21:53 42.0 °F 39.0 °F 30.20 in Calm   6.0 mph 89% 0.00 in 0.00 W/m2
22:03 42.1 °F 38.8 °F 30.19 in Calm     88% 0.00 in 0.00 W/m2
22:08 42.2 °F 38.6 °F 30.20 in Calm     87% 0.00 in 0.00 W/m2
22:13 42.4 °F 38.8 °F 30.20 in Calm     87% 0.00 in 0.00 W/m2
22:18 42.4 °F 38.5 °F 30.20 in Calm   1.0 mph 86% 0.00 in 0.00 W/m2
22:24 42.4 °F 38.5 °F 30.20 in Calm     86% 0.00 in 0.00 W/m2
22:28 42.3 °F 37.8 °F 30.20 in Calm     84% 0.00 in 0.00 W/m2
22:34 42.2 °F 37.7 °F 30.19 in Calm     84% 0.00 in 0.00 W/m2
22:39 42.2 °F 37.7 °F 30.19 in Calm   2.0 mph 84% 0.00 in 0.00 W/m2
22:49 42.2 °F 37.4 °F 30.19 in Calm     83% 0.00 in 0.00 W/m2
22:54 42.2 °F 37.4 °F 30.19 in Calm     83% 0.00 in 0.00 W/m2
22:59 42.2 °F 36.8 °F 30.19 in Calm     81% 0.00 in 0.00 W/m2
23:09 42.2 °F 37.1 °F 30.19 in Calm     82% 0.00 in 0.00 W/m2
23:14 42.2 °F 36.8 °F 30.19 in Calm     81% 0.00 in 0.00 W/m2
23:19 42.1 °F 36.7 °F 30.19 in NE 4.0 mph 5.0 mph 81% 0.00 in 0.00 W/m2
23:24 42.1 °F 37.0 °F 30.19 in Calm   3.0 mph 82% 0.00 in 0.00 W/m2
23:34 42.1 °F 36.7 °F 30.19 in Calm   3.0 mph 81% 0.00 in 0.00 W/m2
23:44 42.1 °F 36.7 °F 30.18 in Calm   7.0 mph 81% 0.00 in 0.00 W/m2
23:49 42.0 °F 36.6 °F 30.18 in East 4.0 mph 7.0 mph 81% 0.00 in 0.00 W/m2
23:54 42.0 °F 36.6 °F 30.18 in East 5.0 mph 7.0 mph 81% 0.00 in 0.00 W/m2
23:59 42.0 °F 36.6 °F 30.18 in Calm   5.0 mph 81% 0.00 in 0.00 W/m2
Foresthill Weather
 WU-history PHP script courtesy of   Juneau County Weather.
powered by Cumulus v1.9.3 (1059)
Ambient Weather VWS v14.00
Top Contact Website Map Copyright © 2007 - 2018 Foresthillweather.com Never base important decisions on this or any weather information obtained from the Internet